Flag for Germany Weather past 2 weeks in Freital, Saxony, Germany

Now
58 °F

Scattered clouds.


Feels Like: 58 °F
Forecast: 62 / 78 °F
Wind: 2 mph from South

Location: Dresden-Klotzsche

Current Time: Aug 1, 2014 at 8:19:34 AM

Latest Report: Aug 1, 2014 at 8:00 AM


Visibility: 22 mi

Pressure: 29.98 "Hg

Humidity: 91%

Dew point: 55 °F

Location of FreitalLocation

Historic Weather in Freital — Graph

°F

Freital temperature yesterday

Maximum temperature yesterday: 74 °F (at 4:00 PM)
Minimum temperature yesterday: 62 °F (at 8:00 AM)
Average temperature yesterday: 68 °F

Past Weeks' High & Low Weather Summary

 TemperatureHumidityPressure
High90 °F (Jul 20, 4:00 PM)98% (Jul 25, 6:00 AM)30.18 "Hg (Jul 25, 6:00 AM)
Low56 °F (Aug 1, 6:00 AM)25% (Jul 20, 4:00 PM)29.69 "Hg (Jul 29, 7:00 PM)
Average71 °F69%29.92 "Hg
* Reported Jul 17 7:00 AM — Aug 1 7:00 AM, Freital, Weather by CustomWeather, © 2014

Note: Actual official high and low records may vary slightly from our data, if they occured in-between our weather recording intervals... More about our weather records

Advertising

Freital weather history for previous 24 hours

 ConditionsComfort  
Time TempWeatherWind HumidityBarometerVisibility
7:00 AM
Aug 1
57 °FScattered clouds.2 mph93%29.98 "Hg17 mi
6:00 AM56 °FPartly sunny.3 mph94%29.98 "Hg12 mi
4:00 AM57 °FPassing clouds.3 mph92%29.99 "Hg22 mi
3:00 AM58 °FPassing clouds.3 mph89%29.98 "Hg22 mi
2:00 AM59 °FPassing clouds.3 mph87%29.99 "Hg22 mi
1:00 AM61 °FPassing clouds.3 mph83%30.00 "Hg22 mi
12:00 AM64 °FPassing clouds.2 mph73%29.98 "Hg22 mi
11:00 PM
Jul 31
66 °FPassing clouds.1 mph62%29.98 "Hg25 mi
10:00 PM68 °FPassing clouds.1 mph60%29.97 "Hg25 mi
9:00 PM70 °FPassing clouds.1 mph56%29.95 "Hg25 mi
8:00 PM72 °FPartly sunny.2 mph54%29.94 "Hg25 mi
7:00 PM73 °FPartly sunny.3 mph49%29.93 "Hg25 mi
6:00 PM74 °FPartly sunny.2 mph43%29.94 "Hg22 mi
5:00 PM73 °FPartly sunny.3 mph43%29.95 "Hg22 mi
4:00 PM74 °FPartly sunny.3 mph46%29.95 "Hg22 mi
3:00 PM73 °FOvercast.5 mph48%29.95 "Hg22 mi
2:00 PM72 °FPartly sunny.5 mph50%29.96 "Hg22 mi
1:00 PM71 °FPartly sunny.7 mph56%29.96 "Hg22 mi
12:00 PM68 °FPartly sunny.6 mph64%29.97 "Hg22 mi
11:00 AM68 °FPartly sunny.6 mph63%29.97 "Hg19 mi
10:00 AM65 °FPartly sunny.5 mph76%29.96 "Hg16 mi
9:00 AM63 °FOvercast.5 mph81%29.96 "Hg12 mi
8:00 AM62 °FOvercast.3 mph86%29.95 "Hg19 mi
Weather by CustomWeather, © 2014

See weather overviewHow to use our weather pages